This is the latest recevied weather packets stored in our database for station/object KB2AHZ. If no packets are shown the sender has not sent any weather packets the latest 10 day(s).
| Time | Temp. | Humidity | Pressure | Rain* | Wind** | Luminosity | Snow |
|---|---|---|---|---|---|---|---|
| 1778006024 | 28.33° C | 37% | 1014.9 hPa | 0 mm | - | 876 W/m² | - |
| 1778005720 | 27.78° C | 37% | 1014.9 hPa | 0 mm | - | 867 W/m² | - |
| 1778005417 | 27.78° C | 37% | 1015.1 hPa | 0 mm | - | 887 W/m² | - |
| 1778005114 | 27.78° C | 38% | 1015 hPa | 0 mm | - | 892 W/m² | - |
| 1778004811 | 27.22° C | 37% | 1015.3 hPa | 0 mm | - | 890 W/m² | - |
| 1778004508 | 27.22° C | 36% | 1015.3 hPa | 0 mm | - | 911 W/m² | - |
| 1778004204 | 28.33° C | 36% | 1015.3 hPa | 0 mm | - | 907 W/m² | - |
| 1778003901 | 27.78° C | 39% | 1015.2 hPa | 0 mm | - | 913 W/m² | - |
| 1778003597 | 28.33° C | 38% | 1015.3 hPa | 0 mm | - | 919 W/m² | - |
| 1778003294 | 27.78° C | 37% | 1015.2 hPa | 0 mm | - | 923 W/m² | - |
| 1778002991 | 27.78° C | 37% | 1015.6 hPa | 0 mm | - | 925 W/m² | - |
| 1778002687 | 27.22° C | 37% | 1015.6 hPa | 0 mm | - | 935 W/m² | - |
| 1778002384 | 27.22° C | 39% | 1015.4 hPa | 0 mm | - | 941 W/m² | - |
| 1778002081 | 26.67° C | 37% | 1015.7 hPa | 0 mm | - | 933 W/m² | - |
| 1778001778 | 27.22° C | 37% | 1015.7 hPa | 0 mm | - | 917 W/m² | - |
| 1778001473 | 26.67° C | 37% | 1015.5 hPa | 0 mm | - | 910 W/m² | - |
| 1778001170 | 26.67° C | 39% | 1015.9 hPa | 0 mm | - | 896 W/m² | - |
| 1778000866 | 26.67° C | 39% | 1015.9 hPa | 0 mm | - | 916 W/m² | - |
| 1778000564 | 26.67° C | 40% | 1016 hPa | 0 mm | - | 923 W/m² | - |
| 1777999955 | 26.67° C | 39% | 1015.9 hPa | 0 mm | - | 939 W/m² | - |
| 1777999650 | 26.67° C | 40% | 1016.1 hPa | 0 mm | - | 936 W/m² | - |
| 1777999348 | 26.11° C | 39% | 1015.8 hPa | 0 mm | - | 938 W/m² | - |
| 1777999046 | 26.67° C | 40% | 1015.9 hPa | 0 mm | - | 935 W/m² | - |
| 1777998744 | 25.56° C | 40% | 1015.9 hPa | 0 mm | - | 930 W/m² | - |
| 1777998441 | 26.11° C | 42% | 1016 hPa | 0 mm | - | 928 W/m² | - |
* Rain latest hour (hover to see other rain measurements)
** Current wind speed in m/s (hover to see current wind gust speed)